Regional Weather Roundup
Issued by NWS San Angelo, TX

Home | Current Version | Previous Version | Text Only | Print | Product List | Glossary On
Versions: 1 2 3 4 5 6 7 8 9 10 11 12 13 14 15 16 17 18 19 20 21 22 23 24 25 26 27 28 29 30 31 32 33 34 35 36 37 38 39 40 41 42 43 44 45 46 47 48 49 50
000
ASUS44 KSJT 260858
RWRSJT
WEST CENTRAL TEXAS REGIONAL WEATHER ROUNDUP
NATIONAL WEATHER SERVICE SAN ANGELO TX
400 AM CDT MON JUN 26 2017

NOTE: "FAIR" INDICATES FEW OR NO CLOUDS BELOW 12,000 FEET WITH NO
SIGNIFICANT WEATHER AND/OR OBSTRUCTIONS TO VISIBILITY.

TXZ049-054-064>066-071>073-076>078-098-099-113-114-127-128-139-140-
154-155-168>170-261000
...LOCATIONS ACROSS WEST CENTRAL TEXAS...

CITY           SKY/WX    TMP DP  RH WIND       PRES   REMARKS
SAN ANGELO     MOCLDY    72  67  84 E6        30.15F
ABILENE        CLOUDY    70  69  97 SE6       30.16S
DYESS AFB      NOT AVBL
JUNCTION       CLOUDY    74  68  81 E3        30.15F
SWEETWATER     NOT AVBL
BROWNWOOD      NOT AVBL
COLEMAN        NOT AVBL
SONORA         NOT AVBL
OZONA          NOT AVBL
BRADY          NOT AVBL
$$

TEXAS PANHANDLE/OKLAHOMA PANHANDLE

CITY           SKY/WX    TMP DP  RH WIND       PRES   REMARKS
AMARILLO       CLOUDY    60  56  86 N3        30.26R
BORGER         CLOUDY    65  59  81 W6        30.25R
CANADIAN       NOT AVBL
DALHART        MOCLDY    58  57  97 SW7       30.31F
DUMAS          NOT AVBL
GUYMON         NOT AVBL
HEREFORD       NOT AVBL
PAMPA          NOT AVBL
PERRYTON       NOT AVBL
$$

SOUTHERN PANHANDLE/SOUTH PLAINS/ROLLING PLAINS

CITY           SKY/WX    TMP DP  RH WIND       PRES   REMARKS
LUBBOCK        TSTM      61  59  93 NE22G31   30.28F FOG
SNYDER         NOT AVBL
CHILDRESS      CLOUDY    70  63  78 SW13      30.17F
SEMINOLE       NOT AVBL
$$

PERMIAN BASIN

CITY           SKY/WX    TMP DP  RH WIND       PRES   REMARKS
MIDLAND        CLOUDY    72  61  68 N24G30    30.24R
ODESSA         CLOUDY    68  60  75 NE24G43   30.26R
WINK           CLOUDY    73  67  81 MISG      30.20R
$$

FAR WEST/SOUTHWEST MOUNTAINS/TRANS PECOS

CITY           SKY/WX    TMP DP  RH WIND       PRES   REMARKS
ALPINE         NOT AVBL
DRYDEN         NOT AVBL
EL PASO        CLOUDY    74  61  63 S9        30.16F
FORT STOCKTON  MOCLDY    74  63  68 SE14      30.15F
GUADALUPE PASS NOT AVBL
MARFA          NOT AVBL
PECOS          NOT AVBL
$$

DALLAS/FORT WORTH METROPLEX

CITY           SKY/WX    TMP DP  RH WIND       PRES   REMARKS
DFW AIRPORT    CLOUDY    76  67  73 SE6       30.13F
FTW MEACHAM    MOCLDY    76  68  76 SE8       30.13F
DAL-EXECUTIVE  CLOUDY    72  67  84 E6        30.13F
GRAND PRAIRIE  NOT AVBL
ADDISON        NOT AVBL
MESQUITE       NOT AVBL
LANCASTER      NOT AVBL
$$

NORTH CENTRAL TEXAS

CITY           SKY/WX    TMP DP  RH WIND       PRES   REMARKS
SHRMAN/DENISON NOT AVBL
GAINESVILLE    NOT AVBL
BRIDGEPORT     NOT AVBL
DENTON         CLOUDY    74  65  73 E7        30.14F
WAXAHACHIE     NOT AVBL
GRANBURY       NOT AVBL
$$

WESTERN NORTH TEXAS

CITY           SKY/WX    TMP DP  RH WIND       PRES   REMARKS
WICHITA FALLS  CLOUDY    68  61  78 S5        30.15R
VERNON         NOT AVBL
BRECKENRIDGE   NOT AVBL
COMANCHE       NOT AVBL
$$

CENTRAL AND SOUTH CENTRAL TEXAS

CITY           SKY/WX    TMP DP  RH WIND       PRES   REMARKS
AUSTIN/BERGSTM MOCLDY    75  73  93 N5        30.12S
WACO           CLOUDY    74  72  93 E5        30.12F
HILLSBORO      NOT AVBL
TEMPLE         RAIN      73  72  96 SE7       30.14F
KILLEEN-GRAY   NOT AVBL
FORT HOOD      NOT AVBL
GEORGETOWN     NOT AVBL
LAGO VISTA     NOT AVBL
SAN MARCOS     NOT AVBL
NEW BRAUNFELS  MOCLDY    75  71  87 NE5       30.10S
RANDOLPH AFB   NOT AVBL
SAN ANTONIO    CLOUDY    74  69  85 NE3       30.12S
STINSON        CLOUDY    76  71  85 NE5       30.09F
PLEASANTON     NOT AVBL
LA GRANGE      NOT AVBL
GIDDINGS       NOT AVBL
$$

EAST TEXAS

CITY           SKY/WX    TMP DP  RH WIND       PRES   REMARKS
PARIS          NOT AVBL
CLARKSVILLE    NOT AVBL
TYLER          MOCLDY    71  62  73 E6        30.15S
LONGVIEW       CLOUDY    69  66  90 CALM      30.14F
PALESTINE      NOT AVBL
NACOGDOCHES    NOT AVBL
$$

TEXAS HILL COUNTRY AND EDWARDS PLATEAU

CITY           SKY/WX    TMP DP  RH WIND       PRES   REMARKS
LLANO          NOT AVBL
HORSESHOE BAY  NOT AVBL
KERRVILLE      NOT AVBL
FREDERICKSBRG  NOT AVBL
ROCKSPRINGS    NOT AVBL
HONDO          CLOUDY    76  72  87 NE3       30.12S
UVALDE         NOT AVBL
DEL RIO        CLEAR     74  69  85 E7        30.10S
$$

SOUTHEAST TEXAS

CITY           SKY/WX    TMP DP  RH WIND       PRES   REMARKS
COLLEGE STN    PTCLDY    72  72 100 E5        30.11S
CALDWELL       NOT AVBL
CROCKETT       NOT AVBL
BRENHAM        NOT AVBL
HUNTSVILLE     CLOUDY    74  70  87 CALM      30.13R
CONROE         MOCLDY    72  71  97 CALM      30.11S
HOUSTON BUSH   MOCLDY    74  71  91 NE7       30.10R
HOUSTON HOBBY  CLOUDY    78  73  84 NE6       30.08S
PERLAND        LGT RAIN  79  74  84 N5        30.09S
WHARTON        NOT AVBL
$$

THE UPPER TEXAS COAST

CITY           SKY/WX    TMP DP  RH WIND       PRES   REMARKS
ORANGE         NOT AVBL
PORT ARTHUR      N/A    N/A N/A N/A MISG      30.08F
GALVESTON      CLEAR     80  77  90 E5        30.07S
ANGLETON       CLOUDY    76  74  93 N5        30.07S
BAY CITY       NOT AVBL
$$

TEXAS COASTAL BEND, RIO GRANDE PLAINS DEEP SOUTH TEXAS

CITY           SKY/WX    TMP DP  RH WIND       PRES   REMARKS
VICTORIA       MOCLDY    76  74  93 NE3       30.08R
BEEVILLE       NOT AVBL
ROCKPORT       CLOUDY    81  73  76 E8        30.04R
PORT ARANSAS   NOT AVBL
PORT LAVACA    NOT AVBL
CORPUS CHRISTI PTCLDY    79  75  87 E3        30.04R
KINGSVILLE NAS NOT AVBL
COTULLA        MOCLDY    74  72  93 NE7       30.08S
LAREDO         NOT AVBL
BROWNSVILLE    CLEAR     76  74  93 CALM      30.00F
PORT ISABEL    CLEAR     78  75  90 CALM      29.99F
HEBBRONVILLE   NOT AVBL
MCALLEN        CLEAR     79  75  87 E5        30.01F
WESLACO        NOT AVBL
FALFURRIAS     NOT AVBL
EDINBURG       NOT AVBL
$$



USA.gov is the U.S. government's official web portal to all federal, state and local government web resources and services.